Tracking 28790 objects as of 19-Apr-2024
HD Live streaming from Space Station
objects crossing your sky now

DELTA 1 DEB

Track DELTA 1 DEB now!
10-day predictions


NORAD ID: 42645
Int'l Code: 1975-052ME
Perigee: 1,101.3 km
Apogee: 1,515.8 km
Inclination: 99.7 °
Period: 111.6 minutes
Semi major axis: 7679 km
RCS: Unknown
Launch date: June 12, 1975
Source: United States (US)
Launch site: AIR FORCE WESTERN TEST RANGE (AFWTR)

Note: This is SATELLITE DEBRIS
Your satellite tracking list
Your tracking list is empty




NASA's NSSDC Master Catalog

Two Line Element Set (TLE):
1 42645U 75052ME  24105.20127498  .00000010  00000-0  15052-3 0  9992
2 42645  99.6782  87.4931 0269900 175.8196 254.0273 12.90025741360529
Source of the keplerian elements: AFSPC